Time,TemperatureF,DewpointF,PressureIn,WindDirection,WindDirectionDegrees,WindSpeedMPH,WindSpeedGustMPH,Humidity,HourlyPrecipIn,Conditions,Clouds,dailyrainin,SoftwareType,DateUTC
2013-11-12 00:11:00,40.4,32.0,30.15,SE,137,0.0,1.0,72,0.00,,,0.00,weatherlink.com 1.10,2013-11-12 05:11:00,
2013-11-12 00:26:00,39.1,31.0,30.14,SE,135,0.0,3.0,74,0.00,,,0.00,weatherlink.com 1.10,2013-11-12 05:26:00,
2013-11-12 00:41:00,39.7,32.0,30.14,ESE,102,0.0,2.0,73,0.00,,,0.00,weatherlink.com 1.10,2013-11-12 05:41:00,
2013-11-12 00:56:00,40.3,32.0,30.14,ESE,112,0.0,2.0,72,0.00,,,0.00,weatherlink.com 1.10,2013-11-12 05:56:00,
2013-11-12 01:11:00,39.6,32.0,30.13,ESE,112,0.0,0.0,73,0.00,,,0.00,weatherlink.com 1.10,2013-11-12 06:11:00,
2013-11-12 01:25:00,39.7,32.0,30.13,ESE,112,0.0,0.0,73,0.00,,,0.00,weatherlink.com 1.10,2013-11-12 06:25:00,
2013-11-12 01:41:00,39.8,31.0,30.12,ESE,112,0.0,0.0,71,0.00,,,0.00,weatherlink.com 1.10,2013-11-12 06:41:00,
2013-11-12 01:56:00,41.0,32.0,30.12,ESE,112,0.0,2.0,69,0.00,,,0.00,weatherlink.com 1.10,2013-11-12 06:56:00,
2013-11-12 02:11:00,40.6,33.0,30.12,ESE,112,0.0,0.0,73,0.00,,,0.00,weatherlink.com 1.10,2013-11-12 07:11:00,
2013-11-12 02:26:00,39.7,33.0,30.11,ESE,112,0.0,0.0,76,0.00,,,0.00,weatherlink.com 1.10,2013-11-12 07:26:00,
2013-11-12 02:41:00,40.1,32.0,30.11,ESE,112,0.0,0.0,73,0.00,,,0.00,weatherlink.com 1.10,2013-11-12 07:41:00,
2013-11-12 02:56:00,39.5,32.0,30.11,ESE,112,1.0,1.0,75,0.00,,,0.00,weatherlink.com 1.10,2013-11-12 07:56:00,
2013-11-12 03:11:00,39.3,33.0,30.10,ESE,112,0.0,0.0,77,0.00,,,0.00,weatherlink.com 1.10,2013-11-12 08:11:00,
2013-11-12 03:25:00,39.9,33.0,30.10,ESE,112,0.0,1.0,75,0.00,,,0.00,weatherlink.com 1.10,2013-11-12 08:25:00,
2013-11-12 03:41:00,40.1,33.0,30.09,ESE,112,0.0,1.0,75,0.00,,,0.00,weatherlink.com 1.10,2013-11-12 08:41:00,
2013-11-12 03:56:00,40.5,32.0,30.09,East,101,0.0,3.0,73,0.00,,,0.00,weatherlink.com 1.10,2013-11-12 08:56:00,
2013-11-12 04:12:00,40.9,34.0,30.08,East,101,0.0,1.0,76,0.00,,,0.00,weatherlink.com 1.10,2013-11-12 09:12:00,
2013-11-12 04:27:00,39.7,34.0,30.08,East,101,0.0,1.0,79,0.00,,,0.00,weatherlink.com 1.10,2013-11-12 09:27:00,
2013-11-12 04:42:00,39.2,33.0,30.08,East,101,0.0,0.0,78,0.00,,,0.00,weatherlink.com 1.10,2013-11-12 09:42:00,
2013-11-12 04:57:00,39.0,34.0,30.07,East,101,0.0,1.0,81,0.00,,,0.00,weatherlink.com 1.10,2013-11-12 09:57:00,
2013-11-12 05:12:00,39.4,34.0,30.07,ESE,119,1.0,3.0,81,0.00,,,0.00,weatherlink.com 1.10,2013-11-12 10:12:00,
2013-11-12 05:27:00,39.3,34.0,30.07,NE,41,0.0,2.0,81,0.00,,,0.00,weatherlink.com 1.10,2013-11-12 10:27:00,
2013-11-12 05:41:00,39.9,35.0,30.07,NE,41,0.0,1.0,81,0.00,,,0.00,weatherlink.com 1.10,2013-11-12 10:41:00,
2013-11-12 05:57:00,40.1,34.0,30.07,NE,41,0.0,1.0,80,0.00,,,0.00,weatherlink.com 1.10,2013-11-12 10:57:00,
2013-11-12 06:12:00,40.3,35.0,30.08,NE,41,0.0,1.0,82,0.00,,,0.00,weatherlink.com 1.10,2013-11-12 11:12:00,
2013-11-12 06:27:00,40.6,34.0,30.07,NE,41,0.0,0.0,77,0.00,,,0.00,weatherlink.com 1.10,2013-11-12 11:27:00,
2013-11-12 06:42:00,40.9,35.0,30.08,ENE,62,1.0,5.0,79,0.00,,,0.00,weatherlink.com 1.10,2013-11-12 11:42:00,
2013-11-12 06:57:00,40.1,35.0,30.07,East,100,0.0,1.0,81,0.00,,,0.00,weatherlink.com 1.10,2013-11-12 11:57:00,
2013-11-12 07:12:00,40.1,34.0,30.08,NE,51,0.0,3.0,80,0.00,,,0.00,weatherlink.com 1.10,2013-11-12 12:12:00,
2013-11-12 07:27:00,39.7,35.0,30.08,ESE,103,1.0,3.0,82,0.00,,,0.00,weatherlink.com 1.10,2013-11-12 12:27:00,
2013-11-12 07:42:00,39.7,35.0,30.09,NE,55,0.0,2.0,82,0.00,,,0.00,weatherlink.com 1.10,2013-11-12 12:42:00,
2013-11-12 07:57:00,40.9,36.0,30.09,East,94,3.0,6.0,81,0.00,,,0.00,weatherlink.com 1.10,2013-11-12 12:57:00,
2013-11-12 08:12:00,42.5,37.0,30.09,SSE,158,1.0,2.0,80,0.00,,,0.00,weatherlink.com 1.10,2013-11-12 13:12:00,
2013-11-12 08:27:00,44.3,39.0,30.09,East,93,3.0,3.0,81,0.00,,,0.00,weatherlink.com 1.10,2013-11-12 13:27:00,
2013-11-12 08:42:00,46.2,38.0,30.09,East,89,0.0,5.0,74,0.00,,,0.00,weatherlink.com 1.10,2013-11-12 13:42:00,
2013-11-12 08:57:00,50.3,36.0,30.09,WNW,295,7.0,9.0,59,0.00,,,0.00,weatherlink.com 1.10,2013-11-12 13:57:00,
2013-11-12 09:12:00,54.1,36.0,30.09,NE,51,3.0,8.0,51,0.00,,,0.00,weatherlink.com 1.10,2013-11-12 14:12:00,
2013-11-12 09:27:00,55.6,39.0,30.09,ESE,103,0.0,4.0,54,0.00,,,0.00,weatherlink.com 1.10,2013-11-12 14:27:00,
2013-11-12 09:42:00,57.4,39.0,30.09,SSE,150,4.0,4.0,50,0.00,,,0.00,weatherlink.com 1.10,2013-11-12 14:42:00,
2013-11-12 09:57:00,59.2,36.0,30.09,SE,143,1.0,6.0,42,0.00,,,0.00,weatherlink.com 1.10,2013-11-12 14:57:00,
2013-11-12 10:12:00,61.1,34.0,30.10,SE,131,1.0,3.0,37,0.00,,,0.00,weatherlink.com 1.10,2013-11-12 15:12:00,
2013-11-12 10:27:00,63.0,34.0,30.10,NNW,343,1.0,8.0,34,0.00,,,0.00,weatherlink.com 1.10,2013-11-12 15:27:00,
2013-11-12 10:43:00,62.5,34.0,30.09,WNW,294,6.0,11.0,35,0.00,,,0.00,weatherlink.com 1.10,2013-11-12 15:43:00,
2013-11-12 10:57:00,62.2,33.0,30.09,NW,324,4.0,15.0,34,0.00,,,0.00,weatherlink.com 1.10,2013-11-12 15:57:00,
2013-11-12 11:13:00,61.9,34.0,30.09,WSW,247,6.0,13.0,35,0.00,,,0.00,weatherlink.com 1.10,2013-11-12 16:13:00,
2013-11-12 11:28:00,60.3,34.0,30.10,NW,324,3.0,12.0,38,0.00,,,0.00,weatherlink.com 1.10,2013-11-12 16:28:00,
2013-11-12 11:43:00,60.5,34.0,30.10,North,349,4.0,6.0,37,0.00,,,0.00,weatherlink.com 1.10,2013-11-12 16:43:00,
2013-11-12 11:58:00,61.8,36.0,30.10,North,10,2.0,7.0,38,0.00,,,0.00,weatherlink.com 1.10,2013-11-12 16:58:00,
2013-11-12 12:13:00,59.5,39.0,30.11,NNE,27,3.0,9.0,46,0.00,,,0.00,weatherlink.com 1.10,2013-11-12 17:13:00,
2013-11-12 12:28:00,57.8,39.0,30.11,South,189,1.0,11.0,49,0.00,,,0.00,weatherlink.com 1.10,2013-11-12 17:28:00,
2013-11-12 12:43:00,57.3,38.0,30.11,NE,48,10.0,12.0,48,0.00,,,0.00,weatherlink.com 1.10,2013-11-12 17:43:00,
2013-11-12 12:58:00,56.6,36.0,30.11,NNE,22,4.0,13.0,47,0.00,,,0.00,weatherlink.com 1.10,2013-11-12 17:58:00,
2013-11-12 13:13:00,55.9,36.0,30.12,NNW,335,4.0,12.0,47,0.00,,,0.00,weatherlink.com 1.10,2013-11-12 18:13:00,
2013-11-12 13:28:00,55.7,34.0,30.13,ENE,75,7.0,12.0,45,0.00,,,0.00,weatherlink.com 1.10,2013-11-12 18:28:00,
2013-11-12 13:43:00,54.1,34.0,30.14,NNE,25,4.0,12.0,47,0.00,,,0.00,weatherlink.com 1.10,2013-11-12 18:43:00,
2013-11-12 13:58:00,53.4,33.0,30.14,NNE,16,3.0,9.0,47,0.00,,,0.00,weatherlink.com 1.10,2013-11-12 18:58:00,
2013-11-12 14:13:00,52.1,33.0,30.15,NNE,27,6.0,14.0,48,0.00,,,0.00,weatherlink.com 1.10,2013-11-12 19:13:00,
2013-11-12 14:28:00,51.0,32.0,30.15,North,354,4.0,17.0,49,0.00,,,0.00,weatherlink.com 1.10,2013-11-12 19:28:00,
2013-11-12 14:42:00,50.1,32.0,30.16,ESE,102,2.0,12.0,50,0.00,,,0.00,weatherlink.com 1.10,2013-11-12 19:42:00,
2013-11-12 14:58:00,47.5,30.0,30.16,NNE,33,12.0,18.0,51,0.00,,,0.00,weatherlink.com 1.10,2013-11-12 19:58:00,
2013-11-12 15:13:00,46.1,30.0,30.17,North,4,9.0,15.0,54,0.00,,,0.00,weatherlink.com 1.10,2013-11-12 20:13:00,
2013-11-12 15:28:00,45.0,30.0,30.18,NE,54,8.0,9.0,55,0.00,,,0.00,weatherlink.com 1.10,2013-11-12 20:28:00,
2013-11-12 15:42:00,43.7,29.0,30.20,East,83,2.0,15.0,56,0.00,,,0.00,weatherlink.com 1.10,2013-11-12 20:42:00,
2013-11-12 15:58:00,42.9,28.0,30.21,NNE,31,1.0,8.0,56,0.00,,,0.00,weatherlink.com 1.10,2013-11-12 20:58:00,
2013-11-12 16:13:00,42.5,28.0,30.22,NE,41,8.0,19.0,56,0.00,,,0.00,weatherlink.com 1.10,2013-11-12 21:13:00,
2013-11-12 16:28:00,41.9,27.0,30.23,ENE,60,4.0,10.0,55,0.00,,,0.00,weatherlink.com 1.10,2013-11-12 21:28:00,
2013-11-12 16:43:00,41.3,26.0,30.24,East,93,5.0,13.0,55,0.00,,,0.00,weatherlink.com 1.10,2013-11-12 21:43:00,
2013-11-12 16:58:00,40.6,26.0,30.25,NE,49,5.0,11.0,56,0.00,,,0.00,weatherlink.com 1.10,2013-11-12 21:58:00,
2013-11-12 17:13:00,39.7,26.0,30.26,North,354,3.0,17.0,58,0.00,,,0.00,weatherlink.com 1.10,2013-11-12 22:13:00,
2013-11-12 17:28:00,38.9,25.0,30.28,North,10,4.0,13.0,57,0.00,,,0.00,weatherlink.com 1.10,2013-11-12 22:28:00,
2013-11-12 17:43:00,38.2,23.0,30.29,NNE,26,4.0,17.0,55,0.00,,,0.00,weatherlink.com 1.10,2013-11-12 22:43:00,
2013-11-12 17:58:00,37.8,23.0,30.31,NE,43,9.0,15.0,55,0.00,,,0.00,weatherlink.com 1.10,2013-11-12 22:58:00,
2013-11-12 18:14:00,37.1,21.0,30.32,NW,322,10.0,19.0,52,0.00,,,0.00,weatherlink.com 1.10,2013-11-12 23:14:00,
2013-11-12 18:29:00,36.4,20.0,30.35,NE,39,12.0,21.0,52,0.00,,,0.00,weatherlink.com 1.10,2013-11-12 23:29:00,
2013-11-12 18:44:00,36.0,20.0,30.36,NE,50,8.0,13.0,53,0.00,,,0.00,weatherlink.com 1.10,2013-11-12 23:44:00,
2013-11-12 18:59:00,35.7,19.0,30.36,NNE,29,5.0,16.0,52,0.00,,,0.00,weatherlink.com 1.10,2013-11-12 23:59:00,
2013-11-12 19:14:00,35.2,19.0,30.37,East,81,9.0,19.0,52,0.00,,,0.00,weatherlink.com 1.10,2013-11-13 00:14:00,
2013-11-12 19:29:00,34.3,18.0,30.38,North,354,2.0,19.0,51,0.00,,,0.00,weatherlink.com 1.10,2013-11-13 00:29:00,
2013-11-12 19:44:00,33.7,17.0,30.39,NE,45,10.0,19.0,50,0.00,,,0.00,weatherlink.com 1.10,2013-11-13 00:44:00,
2013-11-12 19:59:00,33.0,16.0,30.39,NE,45,5.0,20.0,50,0.00,,,0.00,weatherlink.com 1.10,2013-11-13 00:59:00,
2013-11-12 20:14:00,32.5,16.0,30.40,ENE,68,2.0,15.0,51,0.00,,,0.00,weatherlink.com 1.10,2013-11-13 01:14:00,
2013-11-12 20:29:00,32.1,16.0,30.42,North,8,5.0,33.0,51,0.00,,,0.00,weatherlink.com 1.10,2013-11-13 01:29:00,
2013-11-12 20:44:00,31.9,15.0,30.42,NE,41,13.0,23.0,50,0.00,,,0.00,weatherlink.com 1.10,2013-11-13 01:44:00,
2013-11-12 21:00:00,31.6,15.0,30.44,ENE,58,4.0,16.0,51,0.00,,,0.00,weatherlink.com 1.10,2013-11-13 02:00:00,
2013-11-12 21:14:00,31.4,15.0,30.45,ESE,116,4.0,15.0,51,0.00,,,0.00,weatherlink.com 1.10,2013-11-13 02:14:00,
2013-11-12 21:29:00,31.4,15.0,30.46,NE,50,5.0,19.0,51,0.00,,,0.00,weatherlink.com 1.10,2013-11-13 02:29:00,
2013-11-12 21:44:00,31.3,15.0,30.46,East,94,1.0,14.0,52,0.00,,,0.00,weatherlink.com 1.10,2013-11-13 02:44:00,
2013-11-12 21:59:00,31.0,16.0,30.47,ENE,65,1.0,12.0,53,0.00,,,0.00,weatherlink.com 1.10,2013-11-13 02:59:00,
2013-11-12 22:14:00,30.8,16.0,30.46,NNE,12,4.0,12.0,54,0.00,,,0.00,weatherlink.com 1.10,2013-11-13 03:14:00,
2013-11-12 22:29:00,30.7,16.0,30.46,NNW,342,0.0,14.0,54,0.00,,,0.00,weatherlink.com 1.10,2013-11-13 03:29:00,
2013-11-12 22:44:00,30.7,16.0,30.46,North,359,2.0,13.0,55,0.00,,,0.00,weatherlink.com 1.10,2013-11-13 03:44:00,
2013-11-12 22:59:00,30.6,16.0,30.47,East,98,7.0,15.0,55,0.00,,,0.00,weatherlink.com 1.10,2013-11-13 03:59:00,
2013-11-12 23:14:00,30.6,16.0,30.47,NW,320,6.0,8.0,55,0.00,,,0.00,weatherlink.com 1.10,2013-11-13 04:14:00,
2013-11-12 23:28:00,30.5,16.0,30.47,East,92,1.0,8.0,55,0.00,,,0.00,weatherlink.com 1.10,2013-11-13 04:28:00,
2013-11-12 23:44:00,30.3,16.0,30.48,ENE,59,2.0,8.0,56,0.00,,,0.00,weatherlink.com 1.10,2013-11-13 04:44:00,
2013-11-12 23:59:00,30.1,16.0,30.48,NE,43,0.0,7.0,56,0.00,,,0.00,weatherlink.com 1.10,2013-11-13 04:59:00,